TANDEM X

Satellite information

Favourite Embed

Satellite Type and Status

PAYLOADIN ORBIT

Key statistics

Satellite TANDEM X at a glance.

Uptime

5559

Days in orbit

Revolutions

≈ 15.2

Per day

Orbit

SSO

Sun Synchronous Orbit

Inclination

97.4

Latest

Satellite identification and parameters

Extended collection of information and parameters for TANDEM X.

Object identification

Identified? True

Debris? False

Object name: TANDEM X

International designator: 2010-030A

Object number (NORAD): 36605

Object ID (CCSDS): 36605

Country: GERMANY (GER)

Current information (Y/N): Y

RCS size: LARGE

Orbital parameters

Period: 94.79 minutes

Inclination: 97.4473 deg

SMA: 6886.565 km

Apoapsis: 509.724 km

Periapsis: 507.136 km

RAAN: 257.1863 deg

Eccentricy: 0.00018795

Argument of periapsis: 94.8276 deg

Mean anomaly: 265.3173 deg

Mean motion: 15.19143409 rev/day

Mean motion (dot): 0.00002773 rev/day2

B* drag term: 0.00013523333 1/REarth

Two-line elements (TLE)

Creation date: Sept. 8, 2025, 3:16 a.m.

Reference frame: TEME

Reference center: EARTH

Epoch: Sept. 7, 2025, 10:03 a.m. UTC

TLE line 0: 0 TANDEM X

TLE line 1: 1 36605U 10030A 25250.41927774 .00002773 00000-0 13523-3 0 9995

TLE line 2: 2 36605 97.4473 257.1863 0001880 94.8276 265.3173 15.19143409843718

Live tracking on map

Real-time ground track for satellite TANDEM X.

In-orbit conjunctions

There are no conjunctions computed for TANDEM X, at the moment. Check back to stay up to date, as we update our databases every day.

Go to all conjunctions

Associated space launch

TANDEM X was lifted into orbit during the mission ‘Dnepr 1 | TanDEM-X’, on board a Dnepr space rocket.

The launch took place on June 21, 2010, 2:14 a.m. from 109/95.

For more information about the launch, click the button.

Launch to space Dnepr 1 | TanDEM-X
Dnepr 1 | TanDEM-X

Agency: N/A

Status: Launch Successful

Launch date: June 21, 2010, 2:14 a.m. UTC

Rocket: Dnepr

Launch pad: 109/95

Location: Baikonur Cosmodrome, Republic of Kazakhstan

...

Latest news about this satellite

There are no fresh news available about this satellite. Check back as we update our databases every day.


Newsletter sign-up

Weekly statistics, charts and insights to help you stay on top of the space industry.